#timestamp,LO_Frequency,Hit,StdDev 
1590624015.9,286047001.3,N
1590624035.7,286047002.2,N
1590624055.5,286047001.5,N
1590624075.4,286047004.2,Y
1590624095.2,286047001.2,P
1590624115.1,286046998.5,P
1590624116.0,286046998.5,N
1590624135.8,286046996.5,N
1590624155.6,286047001.1,N
1590624175.5,286046998.4,N
1590624195.3,286047000.5,N
1590624215.1,286046999.5,N
1590624235.9,286046998.6,N
1590624255.7,286046999.6,N
1590624275.6,286046997.1,N
1590624295.4,286046999.2,N
1590624315.2,286046996.8,N
1590624335.1,286046997.5,N
1590624336.0,286046997.5,N
1590624355.8,286046997.9,N
1590624375.7,286046997.8,N
1590624395.5,286046996.8,N
1590624415.3,286046996.6,N
1590624435.2,286047000.7,N
1590624455.0,286047002.7,N
1590624455.9,286047002.7,N
1590624475.7,286047000.2,N
1590624495.6,286047000.5,N
1590624515.4,286046998.1,N
1590624535.3,286046996.7,N
1590624555.1,286046996.8,N
1590624575.8,286046998.9,N
1590624595.7,286046998.6,N
1590624615.5,286046996.7,N
1590624635.4,286046996.7,N
1590624655.2,286046997.7,N
1590624675.0,286046999.5,N
1590624675.9,286046999.5,N
1590624695.8,286047001.0,N
1590624715.6,286047002.8,N
1590624735.5,286047000.9,N
1590624755.3,286046999.7,N
1590624775.1,286047001.6,N
1590624795.9,286047004.0,N
1590624815.7,286047002.8,N
1590624835.5,286047002.3,N
1590624855.4,286047001.5,N
1590624875.2,286047002.9,N
1590624895.1,286047002.0,N
1590624896.0,286047002.0,N
1590624915.8,286047002.2,N
1590624935.6,286047001.0,N
1590624955.5,286047000.9,N
1590624975.3,286047000.5,N
1590624995.2,286047001.8,N
1590625015.9,286047003.8,N
1590625035.7,286047004.1,N
1590625055.6,286047001.7,N
1590625075.4,286047003.0,N
1590625095.2,286047003.0,N
1590625115.1,286047001.9,N
1590625116.0,286047001.9,N
1590625135.8,286047001.8,N
1590625155.7,286047005.9,Y
1590625175.5,286047002.1,P
1590625195.3,286047002.0,P
1590625215.2,286047002.0,P
1590625235.0,286047000.5,N
1590625235.9,286047000.5,N
1590625255.8,286047001.7,N
1590625275.6,286047002.1,Y
1590625295.4,286047002.4,P
1590625315.3,286047002.0,P
1590625335.1,286047002.5,P
1590625355.9,286047001.8,Y
1590625375.7,286046998.3,P
1590625395.5,286046996.5,N
1590625415.4,286046996.7,N
1590625435.2,286046997.9,N
1590625455.0,286046998.0,N
1590625455.9,286046998.0,N
1590625475.8,286046995.6,N
1590625495.6,286046999.1,N
1590625515.5,286046999.3,N
1590625535.3,286047000.7,N
1590625555.1,286047000.6,N
1590625575.9,286046999.4,N
1590625595.7,286046996.6,N
1590625615.6,286046998.7,N
1590625635.4,286046999.5,N
1590625655.2,286047000.6,N
1590625675.1,286047000.2,N
1590625676.0,286047000.2,N
1590625695.8,286047001.9,N
1590625715.7,286047002.7,N
1590625735.5,286047000.5,N
1590625755.3,286047001.1,N
1590625775.2,286047000.9,N
1590625795.0,286046998.3,N
1590625795.9,286046998.3,N
1590625815.7,286046999.1,N
1590625835.6,286047000.7,N
1590625855.4,286047002.6,N
1590625875.3,286047002.4,N
1590625895.1,286047000.7,N
1590625915.9,286046999.0,N
1590625935.7,286046997.1,N
1590625955.5,286046999.4,N
1590625975.4,286046999.3,N
1590625995.2,286046999.6,N
1590626015.0,286046997.6,N
1590626015.9,286046997.6,N
1590626035.8,286047001.2,N
1590626055.6,286046998.3,N
1590626075.5,286047001.2,N
1590626095.3,286047002.7,N
1590626115.1,286047001.0,N
1590626135.9,286046998.5,N
1590626155.7,286046998.5,N
1590626175.6,286046998.7,N
1590626195.4,286047000.8,N
1590626215.2,286047002.7,N
1590626235.1,286047000.1,N
1590626236.0,286047000.1,N
1590626255.8,286046998.4,N
1590626275.6,286047000.8,N
1590626295.5,286046999.4,N
1590626315.3,286046999.4,N
1590626335.2,286047000.5,N
1590626355.9,286046999.1,N
1590626375.7,286046997.2,N
1590626395.6,286046999.6,N
1590626415.4,286046998.1,N
1590626435.3,286046999.3,N
1590626455.1,286047000.7,N
1590626456.0,286047000.7,N
1590626475.8,286046999.0,N
1590626495.7,286046998.8,N
1590626515.5,286046998.4,N
1590626535.4,286046999.6,N
1590626555.2,286046997.6,N
1590626575.0,286046998.2,N
1590626575.9,286046998.2,N
1590626595.8,286047000.9,N
1590626615.6,286047000.9,N
1590626635.5,286046998.9,N
1590626655.3,286047000.7,N
1590626675.1,286047000.7,N
1590626695.9,286046998.1,N
1590626715.7,286047000.9,N
1590626735.6,286047000.8,N
1590626755.4,286047001.0,N
1590626775.2,286046999.8,N
1590626795.1,286047000.1,N
1590626796.0,286047000.1,N
1590626815.8,286047002.8,N
1590626835.6,286046998.4,N
1590626855.5,286047000.6,N
1590626875.3,286047000.1,N
1590626895.2,286047000.3,N
1590626915.9,286047000.9,N
1590626935.7,286046999.5,N
1590626955.6,286047000.8,N
1590626975.4,286046998.4,N
1590626995.3,286046997.0,N
1590627015.1,286046999.4,N
1590627016.0,286046999.4,N
1590627035.8,286046998.1,N
1590627055.7,286047000.7,N
1590627075.5,286047000.2,N
1590627095.3,286047002.3,N
1590627115.2,286047002.8,N
1590627135.0,286046998.1,N
1590627135.9,286046998.1,N
1590627155.8,286046999.5,N
1590627175.6,286046998.4,N
1590627195.4,286046999.4,N
1590627215.3,286046998.5,N
1590627235.1,286046995.5,Y
1590627255.9,286046997.8,P
1590627275.7,286046998.9,N
1590627295.6,286046998.1,N
1590627315.4,286046999.7,N
1590627335.2,286047000.5,N
1590627355.1,286047002.3,N
1590627356.0,286047002.3,N
1590627375.8,286047002.2,N
1590627395.6,286047000.1,N
1590627415.5,286046998.5,N
1590627435.3,286046995.3,N
1590627455.2,286046995.2,N
1590627475.9,286046996.1,N
1590627495.7,286046997.8,N
1590627515.6,286046997.0,N
1590627535.4,286046999.6,N
1590627555.2,286046995.0,N
1590627575.1,286046997.9,N
1590627576.0,286046997.9,N
1590627595.8,286046997.4,N
